Regional Weather Roundup
Issued by NWS Jackson, KY

Home | Current Version | Previous Version | Text Only | Print | Product List | Glossary On
Versions: 1 2 3 4 5 6 7 8 9 10 11 12 13 14 15 16 17 18 19 20 21 22 23 24 25 26 27
000
ASUS43 KJKL 212210
RWRJKL

EAST KENTUCKY HOURLY WEATHER ROUNDUP
NATIONAL WEATHER SERVICE JACKSON KY
600 PM EDT MON MAY 21 2018

NOTE: "FAIR" INDICATES FEW OR NO CLOUDS BELOW 12,000 FEET WITH
NO SIGNIFICANT WEATHER AND/OR OBSTRUCTIONS TO VISIBILITY.

* THESE REPORTS ARE NOT UNDER NWS QUALITY CONTROL AND MAY NOT
  REPORT WEATHER SUCH AS PRECIPITATION AND FOG.

KYZ079-080-083-085-087-088-110-112-115-119-120-212300
...EASTERN KENTUCKY...

CITY           SKY/WX    TMP DP  RH WIND       PRES   REMARKS
JACKSON        PTSUNNY   72  65  78 VRB3      30.10R
LONDON           N/A     79  66  64 E6        30.07F
SOMERSET*        N/A     81  66  61 MISG      30.06S
MONTICELLO*    PTSUNNY   80  71  74 N16       30.06F
WILLIAMSBURG*    N/A     81  72  74 E6        30.07S
MIDDLESBORO*   PTSUNNY   80  65  59 CALM      30.09R
HARLAN APT*    CLOUDY    68  66  96 CALM      30.14R
PIKE CO APT*     N/A     68  68 100 SE5       30.11F
BIG SANDY APT* MOCLDY    72  65  77 S5        30.11S
MOREHEAD APT*    N/A     84  64  51 VRB6      30.05F
ASHLAND*         N/A     84  69  60 CALM      30.03R
$$

KYZ035-036-041-042-044-050-067-078-099-212300
...CENTRAL KENTUCKY...

CITY           SKY/WX    TMP DP  RH WIND       PRES   REMARKS
MT STERLING*     N/A     84  64  51 CALM      30.06S
FLEMING/MASON*   N/A     87  65  49 CALM      30.04S
DANVILLE*        N/A     82  64  54 CALM      30.05S
LEXINGTON        N/A     85  67  54 S7        30.03F
FRANKFORT        N/A     84  64  50 SE6       30.01S
LOUISVILLE     PTSUNNY   86  67  52 S10       30.00R
LEBANON*         N/A     84  64  51 SE7       30.03S
GLASGOW*         N/A     86  67  52 W6        30.02S
BOWLING GREEN  LGT RAIN  80  72  76 SE3       30.02S
$$

KYZ091>093-OHZ055-061-077-WVZ005-015-034-035-042-212300
...SOUTHERN OHIO/WEST VIRGINIA...

CITY           SKY/WX    TMP DP  RH WIND       PRES   REMARKS
COVINGTON      PTSUNNY   84  63  49 SW8       30.01S
COLUMBUS       PTSUNNY   82  64  54 SE6       30.01F
DAYTON         PTSUNNY   83  65  54 SW9       30.02F
WILMINGTON       N/A     83  68  60 CALM      30.01F
HUNTINGTON     PTSUNNY   76  64  66 SE18G31   30.07R
CHARLESTON     PTSUNNY   77  65  66 S10       30.08R THUNDER
PINEVILLE*       N/A     69  67  93 MISG      30.18S
BECKLEY        CLOUDY    68  64  87 SE5       30.16F
BLUEFIELD      CLOUDY    70  61  73 S6        30.19S
LOGAN CO APT*  MOCLDY    70  64  83 CALM      30.12R
$$

VAZ002-007-008-TNZ017-027-036-066-071-212300
...SOUTHWEST VIRGINIA/EAST TENNESSEE...

CITY           SKY/WX    TMP DP  RH WIND       PRES   REMARKS
WISE*          CLOUDY    68  63  83 SW8       30.19F
JONESVILLE*    LGT RAIN  73  66  78 NE7       30.13R
ABINGDON*      CLOUDY    74  65  73 CALM      30.16S
BRISTOL        CLOUDY    74  66  76 CALM      30.13S
MORRISTOWN*    CLEAR     81  63  54 W3        30.08F
SEVIERVILLE*   MOCLDY    79  66  65 S6        30.08S
KNOXVILLE      PTSUNNY   83  64  52 CALM      30.05F
LAFOLLETTE*    CLEAR     84  64  51 S9        30.09F
OAK RIDGE        N/A     86  65  49 VRB7      30.07F
CROSSVILLE       N/A     79  59  50 VRB5      30.11F
NASHVILLE      PTSUNNY   86  62  44 S10       30.02F
$$

...KEY TO REMARKS...
VSB - VISIBILITY IN MILES
WCI - WIND CHILL INDEX
HX  - HEAT INDEX

$$




USA.gov is the U.S. government's official web portal to all federal, state and local government web resources and services.